Location: Betra
(48.4113°N, 8.6634°E)
Time: 04:08:30
(UTC+00:00)

Aureole 3 - Visible Passes

Search period start: 18 November 2025 00:00
Search period end: 28 November 2025 00:00
Orbit: 372 x 1045 km, 82.5° (Epoch: 17 November)

Date Brightness Start Highest point End Pass type
(mag) Time Alt. Az. Time Alt. Az. Time Alt. Az.
18 Nov 6.5 02:40:06 10° SE 02:43:30 17° E 02:46:34 10° NE visible
18 Nov 3.8 04:17:24 10° SSW 04:22:57 69° W 04:27:32 10° N visible
18 Nov 5.7 06:02:53 10° WNW 06:03:16 10° WNW 06:03:38 10° WNW visible
19 Nov 4.8 03:23:35 10° SSE 03:28:49 46° E 03:33:09 10° NNE visible
19 Nov 4.8 05:07:49 23° W 05:08:38 24° WNW 05:12:20 10° NNW visible
20 Nov 5.3 04:17:10 21° N 04:17:10 21° N 04:18:38 10° N visible
